,,,PA_Meas_PMT16A,,PR_Meas_QMR101_102,,RH_Meas_QMH101,,SR_Meas_QMS101,,TA_Meas_QMH101,,GenWind,,GenWind,
date,time,status,PA,status,PR,status,RH,status,SR,status,TA,status,DirAvg,status,SpdAvg,
2009-01-31, 00:00:04,VALID,1008.72,VALID,0,VALID,92.4623,VALID,0,VALID,23.0705,VALID,345,VALID,0,
2009-01-31, 00:01:04,VALID,1008.68,VALID,0,VALID,92.4775,VALID,0,VALID,23.0493,VALID,345,VALID,0,
2009-01-31, 00:02:04,VALID,1008.7,VALID,0,VALID,92.4928,VALID,0,VALID,23.0493,VALID,345,VALID,0,
2009-01-31, 00:03:04,VALID,1008.71,VALID,0,VALID,92.5004,VALID,0,VALID,23.0298,VALID,345,VALID,0,
2009-01-31, 00:04:04,VALID,1008.69,VALID,0,VALID,92.4851,VALID,0,VALID,23.0493,VALID,345,VALID,0,
2009-01-31, 00:05:04,VALID,1008.72,VALID,0,VALID,92.5156,VALID,0,VALID,23.0705,VALID,345,VALID,0,
2009-01-31, 00:06:04,VALID,1008.68,VALID,0,VALID,92.5233,VALID,0,VALID,23.0705,VALID,345,VALID,0,
2009-01-31, 00:07:04,VALID,1008.69,VALID,0,VALID,92.5461,VALID,0.105969,VALID,23.0493,VALID,345,VALID,0,
2009-01-31, 00:08:04,VALID,1008.69,VALID,0,VALID,92.5461,VALID,0,VALID,23.0298,VALID,345,VALID,0,
2009-01-31, 00:09:04,VALID,1008.67,VALID,0,VALID,92.5461,VALID,0,VALID,23.0316,VALID,345,VALID,0,
2009-01-31, 00:10:04,VALID,1008.66,VALID,0,VALID,92.5614,VALID,0,VALID,23.0298,VALID,345,VALID,0,
2009-01-31, 00:11:04,VALID,1008.62,VALID,0,VALID,92.5614,VALID,0,VALID,23.0316,VALID,345,VALID,0,
2009-01-31, 00:12:04,VALID,1008.61,VALID,0,VALID,92.569,VALID,0,VALID,23.0493,VALID,345,VALID,0,
2009-01-31, 00:13:04,VALID,1008.63,VALID,0,VALID,92.569,VALID,0,VALID,23.09,VALID,345,VALID,0,
2009-01-31, 00:14:04,VALID,1008.61,VALID,0,VALID,92.5843,VALID,0,VALID,23.0705,VALID,345,VALID,0,
2009-01-31, 00:15:04,VALID,1008.57,VALID,0,VALID,92.5766,VALID,0,VALID,23.09,VALID,345,VALID,0,
2009-01-31, 00:16:04,VALID,1008.54,VALID,0,VALID,92.5843,VALID,0,VALID,23.0511,VALID,345,VALID,0,
2009-01-31, 00:17:04,VALID,1008.51,VALID,0,VALID,92.5919,VALID,0,VALID,23.0298,VALID,345,VALID,0,
2009-01-31, 00:18:04,VALID,1008.49,VALID,0,VALID,92.5843,VALID,0,VALID,23.0316,VALID,345,VALID,0,
2009-01-31, 00:19:04,VALID,1008.5,VALID,0,VALID,92.5995,VALID,0,VALID,23.0103,VALID,345,VALID,0,
2009-01-31, 00:20:04,VALID,1008.51,VALID,0,VALID,92.6148,VALID,0,VALID,23.0103,VALID,345,VALID,0,
2009-01-31, 00:21:04,VALID,1008.51,VALID,0,VALID,92.5995,VALID,0,VALID,23.0121,VALID,345,VALID,0,
2009-01-31, 00:22:04,VALID,1008.49,VALID,0,VALID,92.6148,VALID,0,VALID,23.0121,VALID,345,VALID,0,
2009-01-31, 00:23:04,VALID,1008.46,VALID,0,VALID,92.5919,VALID,0,VALID,22.9926,VALID,345,VALID,0,
2009-01-31, 00:24:04,VALID,1008.47,VALID,0,VALID,92.5995,VALID,0,VALID,22.9926,VALID,345,VALID,0,
2009-01-31, 00:25:04,VALID,1008.48,VALID,0,VALID,92.6071,VALID,0,VALID,23.0121,VALID,345,VALID,0,
2009-01-31, 00:26:04,VALID,1008.43,VALID,0,VALID,92.6224,VALID,0,VALID,23.0121,VALID,345,VALID,0,
2009-01-31, 00:27:04,VALID,1008.41,VALID,0,VALID,92.6224,VALID,0,VALID,22.9714,VALID,345,VALID,0,
2009-01-31, 00:28:04,VALID,1008.42,VALID,0,VALID,92.5995,VALID,0,VALID,23.0121,VALID,345,VALID,0,
2009-01-31, 00:29:04,VALID,1008.4,VALID,0,VALID,92.6224,VALID,0,VALID,22.9731,VALID,345,VALID,0,
2009-01-31, 00:30:04,VALID,1008.39,VALID,0,VALID,92.63,VALID,0,VALID,22.9536,VALID,345,VALID,0,
2009-01-31, 00:31:04,VALID,1008.34,VALID,0,VALID,92.63,VALID,0,VALID,22.9342,VALID,345,VALID,0,
2009-01-31, 00:32:04,VALID,1008.36,VALID,0,VALID,92.63,VALID,0,VALID,22.9749,VALID,345,VALID,0,
2009-01-31, 00:33:04,VALID,1008.37,VALID,0,VALID,92.6376,VALID,0,VALID,22.9129,VALID,345,VALID,0,
2009-01-31, 00:34:04,VALID,1008.32,VALID,0,VALID,92.6453,VALID,0,VALID,22.9342,VALID,345,VALID,0,
2009-01-31, 00:35:04,VALID,1008.27,VALID,0,VALID,92.6376,VALID,0,VALID,22.9129,VALID,345,VALID,0,
2009-01-31, 00:36:04,VALID,1008.29,VALID,0,VALID,92.6376,VALID,0,VALID,22.8935,VALID,345,VALID,0,
2009-01-31, 00:37:04,VALID,1008.28,VALID,0,VALID,92.6605,VALID,0,VALID,22.9342,VALID,345,VALID,0,
2009-01-31, 00:38:04,VALID,1008.24,VALID,0,VALID,92.6529,VALID,0,VALID,22.9342,VALID,345,VALID,0,
2009-01-31, 00:39:04,VALID,1008.21,VALID,0,VALID,92.6682,VALID,0,VALID,22.9536,VALID,345,VALID,0,
2009-01-31, 00:40:04,VALID,1008.18,VALID,0,VALID,92.691,VALID,0,VALID,22.9731,VALID,345,VALID,0,
2009-01-31, 00:41:04,VALID,1008.18,VALID,0,VALID,92.691,VALID,0,VALID,22.9731,VALID,345,VALID,0,
2009-01-31, 00:42:04,VALID,1008.2,VALID,0,VALID,92.7063,VALID,0,VALID,23.0121,VALID,345,VALID,0,
2009-01-31, 00:43:04,VALID,1008.17,VALID,0,VALID,92.6987,VALID,0,VALID,23.0121,VALID,345,VALID,0,
2009-01-31, 00:44:04,VALID,1008.17,VALID,0,VALID,92.7215,VALID,0,VALID,23.0103,VALID,325,VALID,0,
2009-01-31, 00:45:04,VALID,1008.19,VALID,0,VALID,92.7215,VALID,0,VALID,23.0103,VALID,305,VALID,0,
2009-01-31, 00:46:04,VALID,1008.19,VALID,0,VALID,92.7215,VALID,0,VALID,23.0705,VALID,305,VALID,0,
2009-01-31, 00:47:04,VALID,1008.15,VALID,0,VALID,92.7368,VALID,0,VALID,23.0511,VALID,305,VALID,0,
2009-01-31, 00:48:04,VALID,1008.13,VALID,0,VALID,92.7292,VALID,0,VALID,23.0511,VALID,305,VALID,0,
2009-01-31, 00:49:04,VALID,1008.13,VALID,0,VALID,92.7063,VALID,0,VALID,23.0298,VALID,305,VALID,0,
2009-01-31, 00:50:04,VALID,1008.13,VALID,0,VALID,92.7215,VALID,0,VALID,23.0511,VALID,305,VALID,0,
2009-01-31, 00:51:04,VALID,1008.11,VALID,0,VALID,92.6987,VALID,0,VALID,23.0316,VALID,305,VALID,0,
2009-01-31, 00:52:04,VALID,1008.12,VALID,0,VALID,92.7063,VALID,0,VALID,23.0705,VALID,305,VALID,0,
2009-01-31, 00:53:04,VALID,1008.09,VALID,0,VALID,92.7063,VALID,0,VALID,23.0316,VALID,305,VALID,0,
2009-01-31, 00:54:04,VALID,1008.09,VALID,0,VALID,92.6987,VALID,0,VALID,22.9909,VALID,305,VALID,0,
2009-01-31, 00:55:04,VALID,1008.11,VALID,0,VALID,92.7139,VALID,0,VALID,22.9926,VALID,305,VALID,0,
2009-01-31, 00:56:04,VALID,1008.08,VALID,0,VALID,92.7063,VALID,0,VALID,22.9926,VALID,305,VALID,0,
2009-01-31, 00:57:04,VALID,1008.08,VALID,0,VALID,92.7063,VALID,0,VALID,22.9926,VALID,305,VALID,0,
2009-01-31, 00:58:04,VALID,1008.05,VALID,0,VALID,92.6987,VALID,0,VALID,22.9926,VALID,305,VALID,0,
2009-01-31, 00:59:04,VALID,1008.05,VALID,0,VALID,92.6987,VALID,0,VALID,22.9926,VALID,305,VALID,0,
2009-01-31, 01:00:04,VALID,1008.05,VALID,0,VALID,92.7063,VALID,0,VALID,22.9731,VALID,305,VALID,0,
2009-01-31, 01:01:04,VALID,1008.05,VALID,0,VALID,92.6834,VALID,0,VALID,22.9926,VALID,305,VALID,0,
2009-01-31, 01:02:04,VALID,1008.07,VALID,0,VALID,92.691,VALID,0,VALID,22.9536,VALID,305,VALID,0,
2009-01-31, 01:03:04,VALID,1008.04,VALID,0,VALID,92.6758,VALID,0,VALID,22.9536,VALID,305,VALID,0,
2009-01-31, 01:04:04,VALID,1008.03,VALID,0,VALID,92.6987,VALID,0,VALID,22.9536,VALID,305,VALID,0,
2009-01-31, 01:05:04,VALID,1008.04,VALID,0,VALID,92.691,VALID,0,VALID,22.9536,VALID,305,VALID,0,
2009-01-31, 01:06:04,VALID,1008.03,VALID,0,VALID,92.6834,VALID,0,VALID,22.9536,VALID,305,VALID,0,
2009-01-31, 01:07:04,VALID,1008.06,VALID,0,VALID,92.6834,VALID,0,VALID,22.9536,VALID,305,VALID,0,
2009-01-31, 01:08:04,VALID,1008.03,VALID,0,VALID,92.6758,VALID,0,VALID,22.9129,VALID,305,VALID,0,
2009-01-31, 01:09:04,VALID,1008.06,VALID,0,VALID,92.6605,VALID,0,VALID,22.8935,VALID,305,VALID,0,
2009-01-31, 01:10:04,VALID,1008.05,VALID,0,VALID,92.6682,VALID,0,VALID,22.9147,VALID,305,VALID,0,
2009-01-31, 01:11:04,VALID,1008.07,VALID,0,VALID,92.6605,VALID,0,VALID,22.9342,VALID,311,VALID,0,
2009-01-31, 01:12:04,VALID,1008.06,VALID,0,VALID,92.6758,VALID,0.105969,VALID,22.9129,VALID,312,VALID,0,
2009-01-31, 01:13:04,VALID,1008.08,VALID,0,VALID,92.6758,VALID,0,VALID,22.9129,VALID,312,VALID,0,
2009-01-31, 01:14:04,VALID,1008.11,VALID,0,VALID,92.6605,VALID,0,VALID,22.8952,VALID,313,VALID,0,
2009-01-31, 01:15:04,VALID,1008.1,VALID,0,VALID,92.6453,VALID,0,VALID,22.8545,VALID,313,VALID,0,
2009-01-31, 01:16:04,VALID,1008.12,VALID,0,VALID,92.6453,VALID,0,VALID,22.8757,VALID,313,VALID,0,
2009-01-31, 01:17:04,VALID,1008.09,VALID,0,VALID,92.6376,VALID,0,VALID,22.835,VALID,313,VALID,0,
2009-01-31, 01:18:04,VALID,1008.09,VALID,0,VALID,92.63,VALID,0,VALID,22.8562,VALID,313,VALID,0,
2009-01-31, 01:19:04,VALID,1008.08,VALID,0,VALID,92.6148,VALID,0,VALID,22.8562,VALID,313,VALID,0,
2009-01-31, 01:20:04,VALID,1008.08,VALID,0,VALID,92.63,VALID,0,VALID,22.8368,VALID,313,VALID,0,
2009-01-31, 01:21:04,VALID,1008.09,VALID,0,VALID,92.6376,VALID,0,VALID,22.8368,VALID,313,VALID,0,
2009-01-31, 01:22:04,VALID,1008.12,VALID,0,VALID,92.6224,VALID,0,VALID,22.8562,VALID,313,VALID,0,
2009-01-31, 01:23:04,VALID,1008.12,VALID,0,VALID,92.6224,VALID,0,VALID,22.8155,VALID,27,VALID,0,
2009-01-31, 01:24:04,VALID,1008.09,VALID,0,VALID,92.6453,VALID,0,VALID,22.835,VALID,27,VALID,0,
2009-01-31, 01:25:04,VALID,1008.09,VALID,0,VALID,92.63,VALID,0,VALID,22.8173,VALID,27,VALID,0,
2009-01-31, 01:26:04,VALID,1008.11,VALID,0,VALID,92.6148,VALID,0,VALID,22.8368,VALID,27,VALID,0,
2009-01-31, 01:27:04,VALID,1008.11,VALID,0,VALID,92.6376,VALID,0,VALID,22.7961,VALID,27,VALID,0,
2009-01-31, 01:28:04,VALID,1008.11,VALID,0,VALID,92.63,VALID,0,VALID,22.7978,VALID,27,VALID,0,
2009-01-31, 01:29:04,VALID,1008.13,VALID,0,VALID,92.6453,VALID,0,VALID,22.8173,VALID,27,VALID,0,
2009-01-31, 01:30:04,VALID,1008.09,VALID,0,VALID,92.6529,VALID,0,VALID,22.8173,VALID,27,VALID,0,
2009-01-31, 01:31:04,VALID,1008.09,VALID,0,VALID,92.6376,VALID,0,VALID,22.7766,VALID,27,VALID,0,
2009-01-31, 01:32:04,VALID,1008.13,VALID,0,VALID,92.63,VALID,0.105969,VALID,22.8173,VALID,27,VALID,0,
2009-01-31, 01:33:04,VALID,1008.14,VALID,0,VALID,92.6376,VALID,0,VALID,22.7978,VALID,27,VALID,0,
2009-01-31, 01:34:04,VALID,1008.13,VALID,0,VALID,92.6376,VALID,0,VALID,22.7783,VALID,27,VALID,0,
2009-01-31, 01:35:04,VALID,1008.13,VALID,0,VALID,92.6453,VALID,0,VALID,22.7588,VALID,27,VALID,0,
2009-01-31, 01:36:04,VALID,1008.14,VALID,0,VALID,92.6376,VALID,0.105969,VALID,22.7588,VALID,36,VALID,0,
2009-01-31, 01:37:04,VALID,1008.1,VALID,0,VALID,92.6224,VALID,0,VALID,22.7588,VALID,41,VALID,0,
2009-01-31, 01:38:04,VALID,1008.12,VALID,0,VALID,92.6453,VALID,0,VALID,22.7588,VALID,41,VALID,0,
2009-01-31, 01:39:04,VALID,1008.15,VALID,0,VALID,92.6529,VALID,0,VALID,22.7394,VALID,41,VALID,0,
2009-01-31, 01:40:04,VALID,1008.13,VALID,0,VALID,92.6453,VALID,0.105969,VALID,22.7182,VALID,41,VALID,0,
2009-01-31, 01:41:04,VALID,1008.11,VALID,0,VALID,92.6453,VALID,0,VALID,22.7182,VALID,41,VALID,0,
2009-01-31, 01:42:04,VALID,1008.1,VALID,0,VALID,92.6529,VALID,0,VALID,22.7394,VALID,41,VALID,0,
2009-01-31, 01:43:04,VALID,1008.08,VALID,0,VALID,92.6453,VALID,0,VALID,22.7588,VALID,41,VALID,0,
2009-01-31, 01:44:04,VALID,1008.1,VALID,0,VALID,92.6529,VALID,0,VALID,22.7588,VALID,41,VALID,0,
2009-01-31, 01:45:04,VALID,1008.09,VALID,0,VALID,92.6682,VALID,0,VALID,22.7783,VALID,41,VALID,0,
2009-01-31, 01:46:04,VALID,1008.11,VALID,0,VALID,92.6605,VALID,0,VALID,22.7783,VALID,41,VALID,0,
2009-01-31, 01:47:04,VALID,1008.1,VALID,0,VALID,92.6682,VALID,0.105969,VALID,22.7376,VALID,41,VALID,0,
2009-01-31, 01:48:04,VALID,1008.1,VALID,0,VALID,92.6682,VALID,0,VALID,22.7588,VALID,41,VALID,0,
2009-01-31, 01:49:04,VALID,1008.09,VALID,0,VALID,92.6682,VALID,0,VALID,22.7588,VALID,27,VALID,0,
2009-01-31, 01:50:04,VALID,1008.1,VALID,0,VALID,92.6605,VALID,0,VALID,22.7766,VALID,17,VALID,0,
2009-01-31, 01:51:04,VALID,1008.07,VALID,0,VALID,92.6758,VALID,0,VALID,22.7783,VALID,17,VALID,0,
2009-01-31, 01:52:04,VALID,1008.09,VALID,0,VALID,92.6758,VALID,0,VALID,22.7783,VALID,17,VALID,0,
2009-01-31, 01:53:04,VALID,1008.05,VALID,0,VALID,92.6529,VALID,0.105969,VALID,22.7783,VALID,17,VALID,0,
2009-01-31, 01:54:04,VALID,1008.06,VALID,0,VALID,92.6682,VALID,0,VALID,22.7588,VALID,17,VALID,0,
2009-01-31, 01:55:04,VALID,1008.05,VALID,0,VALID,92.6529,VALID,0,VALID,22.7394,VALID,17,VALID,0,
2009-01-31, 01:56:04,VALID,1008.06,VALID,0,VALID,92.6453,VALID,0,VALID,22.7394,VALID,17,VALID,0,
2009-01-31, 01:57:04,VALID,1008.07,VALID,0,VALID,92.6605,VALID,0,VALID,22.6987,VALID,17,VALID,0,
2009-01-31, 01:58:04,VALID,1008.09,VALID,0,VALID,92.6453,VALID,0,VALID,22.7199,VALID,17,VALID,0,
2009-01-31, 01:59:04,VALID,1008.08,VALID,0,VALID,92.6682,VALID,0,VALID,22.6987,VALID,17,VALID,0,
2009-01-31, 02:00:04,VALID,1008.07,VALID,0,VALID,92.6605,VALID,0,VALID,22.7182,VALID,17,VALID,0,
2009-01-31, 02:01:04,VALID,1008.08,VALID,0,VALID,92.6682,VALID,0,VALID,22.7199,VALID,17,VALID,0,
2009-01-31, 02:02:04,VALID,1008.11,VALID,0,VALID,92.6682,VALID,0,VALID,22.7004,VALID,17,VALID,0,
2009-01-31, 02:03:04,VALID,1008.12,VALID,0,VALID,92.6453,VALID,0,VALID,22.7199,VALID,17,VALID,0,
2009-01-31, 02:04:04,VALID,1008.12,VALID,0,VALID,92.6605,VALID,0,VALID,22.7004,VALID,17,VALID,0,
2009-01-31, 02:05:04,VALID,1008.1,VALID,0,VALID,92.6682,VALID,0,VALID,22.7004,VALID,17,VALID,0,
2009-01-31, 02:06:04,VALID,1008.1,VALID,0,VALID,92.6682,VALID,0,VALID,22.7199,VALID,17,VALID,0,
2009-01-31, 02:07:04,VALID,1008.11,VALID,0,VALID,92.6605,VALID,0,VALID,22.7394,VALID,17,VALID,0,
2009-01-31, 02:08:04,VALID,1008.11,VALID,0,VALID,92.6834,VALID,0,VALID,22.7182,VALID,17,VALID,0,
2009-01-31, 02:09:04,VALID,1008.11,VALID,0,VALID,92.6682,VALID,0,VALID,22.7182,VALID,17,VALID,0,
2009-01-31, 02:10:04,VALID,1008.1,VALID,0,VALID,92.6605,VALID,0,VALID,22.7394,VALID,17,VALID,0,
2009-01-31, 02:11:04,VALID,1008.06,VALID,0,VALID,92.6758,VALID,0,VALID,22.7199,VALID,17,VALID,0,
2009-01-31, 02:12:04,VALID,1008.09,VALID,0,VALID,92.6758,VALID,0,VALID,22.7199,VALID,17,VALID,0,
2009-01-31, 02:13:04,VALID,1008.07,VALID,0,VALID,92.6834,VALID,0,VALID,22.7182,VALID,17,VALID,0,
2009-01-31, 02:14:04,VALID,1008.09,VALID,0,VALID,92.6834,VALID,0,VALID,22.7394,VALID,17,VALID,0,
2009-01-31, 02:15:04,VALID,1008.07,VALID,0,VALID,92.6758,VALID,0.105969,VALID,22.7376,VALID,17,VALID,0,
2009-01-31, 02:16:04,VALID,1008.12,VALID,0,VALID,92.6682,VALID,0,VALID,22.7394,VALID,17,VALID,0,
2009-01-31, 02:17:04,VALID,1008.14,VALID,0,VALID,92.6758,VALID,0,VALID,22.7199,VALID,17,VALID,0,
2009-01-31, 02:18:04,VALID,1008.16,VALID,0,VALID,92.6758,VALID,0,VALID,22.7394,VALID,17,VALID,0,
2009-01-31, 02:19:04,VALID,1008.19,VALID,0,VALID,92.6834,VALID,0,VALID,22.7394,VALID,17,VALID,0,
2009-01-31, 02:20:04,VALID,1008.19,VALID,0,VALID,92.691,VALID,0,VALID,22.7394,VALID,17,VALID,0,
2009-01-31, 02:21:04,VALID,1008.2,VALID,0,VALID,92.6987,VALID,0,VALID,22.7376,VALID,17,VALID,0,
2009-01-31, 02:22:04,VALID,1008.22,VALID,0,VALID,92.6834,VALID,0,VALID,22.7978,VALID,17,VALID,0,
2009-01-31, 02:23:04,VALID,1008.21,VALID,0,VALID,92.6987,VALID,0,VALID,22.7783,VALID,17,VALID,0,
2009-01-31, 02:24:04,VALID,1008.22,VALID,0,VALID,92.691,VALID,0,VALID,22.7766,VALID,17,VALID,0,
2009-01-31, 02:25:04,VALID,1008.25,VALID,0,VALID,92.6987,VALID,0,VALID,22.7571,VALID,17,VALID,0,
2009-01-31, 02:26:04,VALID,1008.26,VALID,0,VALID,92.7063,VALID,0,VALID,22.7783,VALID,17,VALID,0,
2009-01-31, 02:27:04,VALID,1008.24,VALID,0,VALID,92.6987,VALID,0,VALID,22.7978,VALID,17,VALID,0,
2009-01-31, 02:28:04,VALID,1008.25,VALID,0,VALID,92.7063,VALID,0,VALID,22.7978,VALID,17,VALID,0,
2009-01-31, 02:29:04,VALID,1008.25,VALID,0,VALID,92.6987,VALID,0,VALID,22.7961,VALID,17,VALID,0,
2009-01-31, 02:30:04,VALID,1008.27,VALID,0,VALID,92.691,VALID,0,VALID,22.7783,VALID,17,VALID,0,
2009-01-31, 02:31:04,VALID,1008.28,VALID,0,VALID,92.691,VALID,0,VALID,22.7978,VALID,17,VALID,0,
2009-01-31, 02:32:04,VALID,1008.31,VALID,0,VALID,92.691,VALID,0,VALID,22.7978,VALID,17,VALID,0,
2009-01-31, 02:33:04,VALID,1008.3,VALID,0,VALID,92.6987,VALID,0,VALID,22.7978,VALID,17,VALID,0,
2009-01-31, 02:34:04,VALID,1008.31,VALID,0,VALID,92.691,VALID,0,VALID,22.8173,VALID,17,VALID,0,
2009-01-31, 02:35:04,VALID,1008.3,VALID,0,VALID,92.6987,VALID,0,VALID,22.8173,VALID,17,VALID,0,
2009-01-31, 02:36:04,VALID,1008.28,VALID,0,VALID,92.7139,VALID,0,VALID,22.8155,VALID,17,VALID,0,
2009-01-31, 02:37:04,VALID,1008.29,VALID,0,VALID,92.7215,VALID,0,VALID,22.8368,VALID,17,VALID,0,
2009-01-31, 02:38:04,VALID,1008.28,VALID,0,VALID,92.691,VALID,0,VALID,22.8155,VALID,17,VALID,0,
2009-01-31, 02:39:04,VALID,1008.29,VALID,0,VALID,92.7139,VALID,0,VALID,22.8155,VALID,17,VALID,0,
2009-01-31, 02:40:04,VALID,1008.28,VALID,0,VALID,92.7139,VALID,0,VALID,22.8562,VALID,17,VALID,0,
2009-01-31, 02:41:04,VALID,1008.29,VALID,0,VALID,92.7215,VALID,0,VALID,22.8368,VALID,17,VALID,0,
2009-01-31, 02:42:04,VALID,1008.24,VALID,0,VALID,92.7063,VALID,0,VALID,22.8757,VALID,17,VALID,0,
2009-01-31, 02:43:04,VALID,1008.23,VALID,0,VALID,92.7139,VALID,0,VALID,22.8952,VALID,17,VALID,0,
2009-01-31, 02:44:04,VALID,1008.25,VALID,0,VALID,92.7292,VALID,0,VALID,22.8757,VALID,17,VALID,0,
2009-01-31, 02:45:04,VALID,1008.24,VALID,0,VALID,92.7215,VALID,0,VALID,22.8952,VALID,17,VALID,0,
2009-01-31, 02:46:04,VALID,1008.23,VALID,0,VALID,92.7063,VALID,0,VALID,22.9147,VALID,17,VALID,0,
2009-01-31, 02:47:04,VALID,1008.21,VALID,0,VALID,92.7063,VALID,0,VALID,22.9129,VALID,17,VALID,0,
2009-01-31, 02:48:04,VALID,1008.23,VALID,0,VALID,92.7139,VALID,0,VALID,22.9129,VALID,16,VALID,0,
2009-01-31, 02:49:04,VALID,1008.25,VALID,0,VALID,92.7139,VALID,0,VALID,22.9536,VALID,312,VALID,0,
2009-01-31, 02:50:04,VALID,1008.28,VALID,0,VALID,92.7063,VALID,0,VALID,22.9536,VALID,312,VALID,0,
2009-01-31, 02:51:04,VALID,1008.28,VALID,0,VALID,92.7063,VALID,0,VALID,22.9731,VALID,312,VALID,0,
2009-01-31, 02:52:04,VALID,1008.26,VALID,0,VALID,92.6834,VALID,0,VALID,22.9731,VALID,312,VALID,0,
2009-01-31, 02:53:04,VALID,1008.27,VALID,0,VALID,92.691,VALID,0,VALID,22.9536,VALID,312,VALID,0,
2009-01-31, 02:54:04,VALID,1008.26,VALID,0,VALID,92.6758,VALID,0,VALID,22.9926,VALID,312,VALID,0,
2009-01-31, 02:55:04,VALID,1008.25,VALID,0,VALID,92.6834,VALID,0,VALID,22.9926,VALID,312,VALID,0,
2009-01-31, 02:56:04,VALID,1008.23,VALID,0,VALID,92.6834,VALID,0,VALID,23.0103,VALID,312,VALID,0,
2009-01-31, 02:57:04,VALID,1008.21,VALID,0,VALID,92.6605,VALID,0.105969,VALID,23.0298,VALID,312,VALID,0,
2009-01-31, 02:58:04,VALID,1008.25,VALID,0,VALID,92.6453,VALID,0.105969,VALID,23.0298,VALID,312,VALID,0,
2009-01-31, 02:59:04,VALID,1008.24,VALID,0,VALID,92.6453,VALID,0.105969,VALID,23.0298,VALID,312,VALID,0,
2009-01-31, 03:00:04,VALID,1008.25,VALID,0,VALID,92.6148,VALID,0.105969,VALID,23.0298,VALID,312,VALID,0,
2009-01-31, 03:01:04,VALID,1008.24,VALID,0,VALID,92.63,VALID,0.105969,VALID,23.0281,VALID,312,VALID,0,
2009-01-31, 03:02:04,VALID,1008.23,VALID,0,VALID,92.63,VALID,0,VALID,23.0493,VALID,312,VALID,0,
2009-01-31, 03:03:04,VALID,1008.24,VALID,0,VALID,92.6071,VALID,0.105969,VALID,23.0493,VALID,312,VALID,0,
2009-01-31, 03:04:04,VALID,1008.24,VALID,0,VALID,92.5919,VALID,0,VALID,23.0493,VALID,312,VALID,0,
2009-01-31, 03:05:04,VALID,1008.24,VALID,0,VALID,92.5843,VALID,0.105969,VALID,23.0688,VALID,312,VALID,0,
2009-01-31, 03:06:04,VALID,1008.25,VALID,0,VALID,92.5766,VALID,0.105969,VALID,23.0688,VALID,312,VALID,0,
2009-01-31, 03:07:04,VALID,1008.24,VALID,0,VALID,92.5538,VALID,0.105969,VALID,23.0688,VALID,312,VALID,0,
2009-01-31, 03:08:04,VALID,1008.25,VALID,0,VALID,92.5461,VALID,0.105969,VALID,23.0883,VALID,310,VALID,0,
2009-01-31, 03:09:04,VALID,1008.25,VALID,0,VALID,92.508,VALID,0.105969,VALID,23.0883,VALID,310,VALID,0,
2009-01-31, 03:10:04,VALID,1008.29,VALID,0,VALID,92.4928,VALID,0,VALID,23.0883,VALID,309,VALID,0,
2009-01-31, 03:11:04,VALID,1008.27,VALID,0,VALID,92.4775,VALID,0.105969,VALID,23.1077,VALID,309,VALID,0,
2009-01-31, 03:12:04,VALID,1008.26,VALID,0,VALID,92.4546,VALID,0,VALID,23.1467,VALID,309,VALID,0,
2009-01-31, 03:13:04,VALID,1008.25,VALID,0,VALID,92.4089,VALID,0,VALID,23.1077,VALID,309,VALID,0,
2009-01-31, 03:14:04,VALID,1008.27,VALID,0,VALID,92.4013,VALID,0.105969,VALID,23.1077,VALID,309,VALID,0,
2009-01-31, 03:15:04,VALID,1008.28,VALID,0,VALID,92.386,VALID,0.105969,VALID,23.1272,VALID,309,VALID,0,
2009-01-31, 03:16:04,VALID,1008.28,VALID,0,VALID,92.3555,VALID,0.105969,VALID,23.0883,VALID,309,VALID,0,
2009-01-31, 03:17:04,VALID,1008.32,VALID,0,VALID,92.3479,VALID,0.105969,VALID,23.1077,VALID,309,VALID,0,
2009-01-31, 03:18:04,VALID,1008.32,VALID,0,VALID,92.3174,VALID,0,VALID,23.0883,VALID,309,VALID,0,
2009-01-31, 03:19:04,VALID,1008.29,VALID,0,VALID,92.3097,VALID,0.105969,VALID,23.0883,VALID,309,VALID,0,
2009-01-31, 03:20:04,VALID,1008.31,VALID,0,VALID,92.3021,VALID,0.105969,VALID,23.0883,VALID,309,VALID,0,
2009-01-31, 03:21:04,VALID,1008.31,VALID,0,VALID,92.2792,VALID,0.105969,VALID,23.0883,VALID,308,VALID,0,
2009-01-31, 03:22:04,VALID,1008.27,VALID,0,VALID,92.2869,VALID,0.105969,VALID,23.0883,VALID,305,VALID,0,
2009-01-31, 03:23:04,VALID,1008.26,VALID,0,VALID,92.2564,VALID,0.105969,VALID,23.0883,VALID,305,VALID,0,
2009-01-31, 03:24:04,VALID,1008.2,VALID,0,VALID,92.2259,VALID,0.105969,VALID,23.0883,VALID,305,VALID,0,
2009-01-31, 03:25:04,VALID,1008.17,VALID,0,VALID,92.1877,VALID,0.105969,VALID,23.1077,VALID,307,VALID,0,
2009-01-31, 03:26:04,VALID,1008.18,VALID,0,VALID,92.203,VALID,0,VALID,23.1095,VALID,332,VALID,0,
2009-01-31, 03:27:04,VALID,1008.18,VALID,0,VALID,92.1725,VALID,0,VALID,23.09,VALID,332,VALID,0,
2009-01-31, 03:28:04,VALID,1008.15,VALID,0,VALID,92.1725,VALID,0,VALID,23.1095,VALID,332,VALID,0,
2009-01-31, 03:29:04,VALID,1008.17,VALID,0,VALID,92.1649,VALID,0,VALID,23.129,VALID,332,VALID,0,
2009-01-31, 03:30:04,VALID,1008.13,VALID,0,VALID,92.1649,VALID,0,VALID,23.09,VALID,332,VALID,0,
2009-01-31, 03:31:04,VALID,1008.13,VALID,0,VALID,92.1725,VALID,0,VALID,23.09,VALID,332,VALID,0,
2009-01-31, 03:32:04,VALID,1008.14,VALID,0,VALID,92.142,VALID,0,VALID,23.0493,VALID,332,VALID,0,
2009-01-31, 03:33:04,VALID,1008.14,VALID,0,VALID,92.142,VALID,0,VALID,23.0705,VALID,332,VALID,0,
2009-01-31, 03:34:04,VALID,1008.17,VALID,0,VALID,92.1496,VALID,0,VALID,23.0298,VALID,328,VALID,0.715234,
2009-01-31, 03:35:04,VALID,1008.19,VALID,0,VALID,92.1649,VALID,0,VALID,23.0705,VALID,323,VALID,0.516797,
2009-01-31, 03:36:04,VALID,1008.19,VALID,0,VALID,92.1649,VALID,0,VALID,23.09,VALID,278,VALID,0.158594,
2009-01-31, 03:37:04,VALID,1008.21,VALID,0,VALID,92.1801,VALID,0,VALID,23.09,VALID,358,VALID,0.322656,
2009-01-31, 03:38:04,VALID,1008.24,VALID,0,VALID,92.1725,VALID,0,VALID,23.0883,VALID,354,VALID,0.449219,
2009-01-31, 03:39:04,VALID,1008.23,VALID,0,VALID,92.1649,VALID,0,VALID,23.0883,VALID,343,VALID,0.285547,
2009-01-31, 03:40:04,VALID,1008.27,VALID,0,VALID,92.1725,VALID,0,VALID,23.1077,VALID,321,VALID,0.0363281,
2009-01-31, 03:41:04,VALID,1008.3,VALID,0,VALID,92.1649,VALID,0,VALID,23.1095,VALID,323,VALID,0.0617188,
2009-01-31, 03:42:04,VALID,1008.28,VALID,0,VALID,92.1572,VALID,0,VALID,23.0688,VALID,20,VALID,0.371094,
2009-01-31, 03:43:04,VALID,1008.32,VALID,0,VALID,92.142,VALID,0,VALID,23.09,VALID,20,VALID,0.0449219,
2009-01-31, 03:44:04,VALID,1008.33,VALID,0,VALID,92.1649,VALID,0,VALID,23.09,VALID,351,VALID,0.373828,
2009-01-31, 03:45:04,VALID,1008.37,VALID,0,VALID,92.1572,VALID,0,VALID,23.09,VALID,8,VALID,0,
2009-01-31, 03:46:04,VALID,1008.38,VALID,0,VALID,92.1496,VALID,0,VALID,23.0705,VALID,8,VALID,0,
2009-01-31, 03:47:04,VALID,1008.4,VALID,0,VALID,92.1496,VALID,0,VALID,23.0493,VALID,8,VALID,0,
2009-01-31, 03:48:04,VALID,1008.44,VALID,0,VALID,92.1649,VALID,0,VALID,23.0705,VALID,27,VALID,0,
2009-01-31, 03:49:04,VALID,1008.44,VALID,0,VALID,92.1649,VALID,0,VALID,23.0705,VALID,46,VALID,0,
2009-01-31, 03:50:04,VALID,1008.45,VALID,0,VALID,92.1496,VALID,0,VALID,23.0511,VALID,60,VALID,0,
2009-01-31, 03:51:04,VALID,1008.45,VALID,0,VALID,92.142,VALID,0,VALID,23.0511,VALID,60,VALID,0,
2009-01-31, 03:52:04,VALID,1008.48,VALID,0,VALID,92.1572,VALID,0,VALID,23.0511,VALID,52,VALID,0,
2009-01-31, 03:53:04,VALID,1008.5,VALID,0,VALID,92.1649,VALID,0,VALID,23.0298,VALID,52,VALID,0,
2009-01-31, 03:54:04,VALID,1008.48,VALID,0,VALID,92.142,VALID,0,VALID,23.0103,VALID,36,VALID,0,
2009-01-31, 03:55:04,VALID,1008.49,VALID,0,VALID,92.1572,VALID,0,VALID,23.0103,VALID,36,VALID,0,
2009-01-31, 03:56:04,VALID,1008.52,VALID,0,VALID,92.1649,VALID,0,VALID,23.0316,VALID,36,VALID,0,
2009-01-31, 03:57:04,VALID,1008.52,VALID,0,VALID,92.1572,VALID,0,VALID,23.0121,VALID,48,VALID,0,
2009-01-31, 03:58:04,VALID,1008.52,VALID,0,VALID,92.1725,VALID,0,VALID,23.0121,VALID,58,VALID,0,